Wind_Speed
36 36 35 34 33 32 31 31 31 30 29 28 28 27 26 26 26 26 25 25 24 24 23 22 21 20 19 19 19 19 19 19 18 18 18 17 17 17 16 16 16 16 17 17 18 18 19 19 20 20 21 21 21 21 21 22 22 22 22 22 22 22 23 23 23 23 23 23 23
38 37 35 34 33 32 31 31 30 30 29 28 27 27 26 26 26 26 25 25 24 23 22 21 20 20 19 19 19 19 18 18 18 18 18 18 18 18 17 17 17 17 17 18 18 19 19 20 20 20 21 21 21 22 22 22 22 22 23 23 23 23 23 23 24 24 24 24 24
39 37 36 35 34 33 32 31 31 30 30 28 27 26 26 25 26 25 25 24 23 22 21 21 20 20 19 19 18 18 18 18 18 18 18 19 18 18 18 18 17 17 18 18 19 19 20 20 20 20 21 21 21 22 22 23 22 23 23 24 24 23 23 23 24 24 24 24 25
40 38 37 36 35 34 33 33 32 31 29 28 27 26 26 25 25 25 25 24 23 22 22 21 20 19 19 18 18 18 18 18 18 19 19 19 19 19 18 18 18 18 18 18 19 19 20 20 20 20 21 21 21 22 23 23 23 23 24 24 24 24 24 24 24 25 25 25 25
41 40 38 37 36 35 34 33 31 30 28 27 26 26 26 25 25 25 24 24 24 23 22 21 20 19 19 18 18 18 18 18 18 19 19 19 19 19 18 18 18 18 19 19 19 20 20 20 20 21 21 21 22 22 23 23 23 23 24 24 24 24 24 25 25 26 25 26 26
42 41 39 38 37 35 34 32 31 29 27 26 26 26 26 26 26 25 25 25 24 23 21 20 19 19 19 19 19 19 19 19 19 19 19 19 19 19 19 19 19 19 19 20 20 20 20 20 20 21 21 21 22 23 23 23 23 23 24 24 25 25 25 26 26 26 26 27 27
43 41 40 38 37 36 34 32 30 28 27 26 26 26 26 26 26 26 26 25 23 22 21 20 20 20 20 20 20 20 20 19 19 19 19 19 19 19 19 19 19 20 20 20 21 21 21 21 20 21 21 21 22 23 23 23 23 23 24 25 25 26 26 27 27 27 27 28 28
43 41 40 39 37 36 34 32 30 28 27 26 27 27 27 26 26 26 25 24 24 22 21 20 20 20 20 20 20 20 20 20 19 19 19 19 19 19 19 19 20 20 21 21 21 21 21 20 21 21 21 21 22 23 23 22 22 23 24 25 26 26 27 27 27 27 28 28 29
42 41 40 39 37 36 34 32 30 28 27 27 27 27 26 26 26 26 25 25 24 22 21 21 20 20 20 20 20 20 20 20 19 19 19 19 19 19 20 20 20 21 21 21 21 21 21 21 21 21 21 22 22 23 23 22 22 23 24 25 26 27 27 27 27 28 28 29 30
42 41 40 39 38 36 34 32 30 28 27 27 27 26 26 26 26 26 26 25 23 22 21 21 21 21 21 21 21 20 20 20 19 19 19 19 20 20 20 21 21 21 22 22 21 21 21 21 21 21 22 22 22 22 22 22 23 23 25 25 26 27 28 28 28 29 29 30 31
43 42 41 39 38 36 34 32 30 29 28 27 27 26 26 26 26 26 25 24 23 22 22 21 21 21 21 21 21 20 20 20 19 19 20 20 20 20 21 21 21 22 22 22 21 21 21 21 21 22 22 22 22 22 23 23 23 24 25 26 26 28 29 29 29 29 30 30 31
43 42 41 39 37 36 34 33 31 30 29 28 28 27 27 27 26 26 25 24 24 23 22 22 21 21 22 21 21 21 20 20 20 20 20 21 21 21 21 21 22 22 22 21 21 21 21 21 22 22 22 22 22 23 23 23 23 24 25 26 27 29 30 31 31 30 30 30 31
43 42 40 39 37 36 35 33 32 31 30 29 28 28 27 27 26 26 25 25 24 24 23 22 22 22 22 22 21 21 20 20 20 20 21 21 21 21 22 22 22 22 22 21 21 21 21 21 22 22 23 23 23 23 23 23 24 25 26 27 29 30 31 32 32 31 31 31 32
43 41 40 39 38 36 35 34 33 31 31 30 29 29 28 27 26 26 25 25 25 24 23 23 22 22 22 22 21 21 20 20 20 21 21 22 22 22 22 22 22 21 21 21 21 21 21 21 22 22 23 23 24 23 23 23 24 25 27 28 30 31 32 32 32 32 32 33 33
42 41 40 39 38 37 36 35 33 32 32 31 30 29 28 27 27 26 26 25 25 24 23 23 23 23 22 22 21 21 21 21 21 21 22 22 22 22 22 22 22 21 21 21 21 21 21 21 22 22 23 23 24 24 24 24 24 25 27 28 30 31 32 33 32 32 32 33 33
41 41 40 39 38 37 36 35 34 33 32 32 31 30 29 28 27 26 26 26 25 24 24 24 24 23 22 22 21 21 21 21 21 22 22 23 23 23 22 22 22 21 21 21 21 21 21 21 22 22 22 23 23 24 24 24 25 26 27 29 30 31 32 32 32 32 32 33 33
41 41 41 40 39 38 37 36 35 34 33 32 31 30 29 28 27 26 26 26 25 25 25 25 24 23 22 22 21 21 21 21 22 22 23 23 23 23 22 22 21 21 21 21 21 21 21 21 21 21 21 22 23 23 24 25 26 27 28 29 30 30 31 30 30 31 32 33 34
41 41 41 40 40 39 38 37 36 35 34 33 31 30 29 28 27 26 26 25 25 25 25 25 24 23 22 22 22 21 21 22 22 23 23 23 23 23 22 22 21 21 21 20 21 21 21 20 20 20 20 21 22 23 24 25 26 27 28 29 29 29 29 29 30 31 32 33 35
41 41 41 41 41 40 39 37 36 35 34 33 31 30 29 28 27 26 25 25 25 25 25 25 24 23 23 22 22 22 22 22 23 23 23 23 23 22 22 21 21 20 20 20 20 20 20 19 19 19 19 20 21 22 23 24 25 26 27 27 28 28 29 30 31 32 33 34 36
41 41 42 42 41 40 39 38 37 35 34 32 31 30 28 27 26 25 25 25 25 25 25 25 24 23 23 22 22 22 22 22 23 23 23 22 22 22 21 20 20 19 19 19 19 18 18 18 18 18 19 20 21 22 23 23 24 25 25 27 28 29 30 31 32 33 35 36 37
42 42 43 42 41 40 39 38 36 35 34 32 31 30 28 27 26 25 25 25 25 25 25 25 24 24 23 23 23 23 23 22 22 23 23 22 22 21 20 19 19 18 18 18 18 17 17 17 18 18 19 20 21 21 22 22 23 24 26 27 29 31 32 33 34 35 36 37 38
42 43 43 42 41 40 39 37 36 35 33 32 31 29 28 27 25 24 24 24 24 25 25 25 25 24 24 23 23 23 23 22 22 22 22 22 21 20 19 18 18 18 17 17 17 17 17 17 17 18 18 19 20 20 21 22 23 25 28 30 31 33 34 34 35 36 37 37 38
43 42 42 41 40 39 38 37 35 34 33 32 30 29 28 26 25 24 23 24 25 26 26 26 25 25 24 24 23 23 23 22 22 22 22 21 21 20 19 18 17 17 17 17 16 16 17 17 17 18 18 19 20 20 22 23 25 27 29 31 32 33 34 35 35 36 37 37 38
42 41 41 40 39 38 37 36 35 34 33 32 31 29 27 26 24 23 24 24 26 26 27 26 26 25 24 24 23 23 23 23 23 22 22 21 20 19 18 17 17 17 17 17 16 16 16 17 17 18 19 20 21 23 24 25 26 28 30 31 33 34 34 35 35 36 36 36 36
40 40 39 39 38 37 36 35 34 34 33 32 30 29 27 25 24 24 24 25 26 27 27 27 26 25 25 24 24 23 23 23 23 23 22 21 20 19 18 17 17 17 17 16 16 16 16 16 17 18 19 21 23 25 26 27 27 28 30 31 32 33 34 34 34 34 33 33 33
39 38 38 38 37 36 36 35 34 34 32 31 30 28 27 25 24 24 25 26 27 27 27 27 27 26 25 24 24 24 24 24 23 23 22 21 20 18 18 17 17 17 16 16 15 15 16 16 17 18 19 21 23 24 25 26 27 28 29 30 31 31 31 31 30 30 30 30 31
37 37 37 37 36 35 35 35 34 33 32 30 29 28 27 25 24 24 25 27 27 28 28 27 27 26 26 25 25 25 25 24 23 23 22 21 20 19 18 18 17 17 16 16 15 16 16 17 17 18 19 20 22 23 25 26 27 28 28 28 28 28 27 26 26 27 28 30 32
36 36 36 35 35 34 34 34 33 32 31 30 29 28 26 25 24 25 26 27 28 28 28 28 27 27 26 26 26 26 25 24 23 23 22 21 20 19 19 18 18 17 16 15 15 16 17 17 18 18 19 19 21 22 24 25 26 26 26 25 24 23 23 23 24 26 29 31 32
36 35 35 34 33 33 33 33 32 32 31 30 29 27 26 25 25 26 27 28 28 29 29 29 28 27 27 27 27 26 25 24 23 22 22 21 20 20 19 19 18 17 16 15 15 16 17 18 18 18 18 19 21 22 23 24 24 24 23 22 22 22 22 23 25 27 29 30 30
35 34 34 33 33 32 32 32 32 31 30 29 28 27 26 25 26 26 28 29 29 30 29 29 28 28 28 28 27 26 25 25 24 23 22 21 21 21 20 19 18 17 15 15 15 16 17 18 18 18 18 19 20 21 22 22 22 22 21 21 22 23 24 25 26 27 28 28 27
34 33 33 33 32 32 32 32 32 31 30 29 28 27 27 26 27 28 29 30 30 30 29 29 29 29 29 28 27 26 26 25 24 23 22 22 21 21 20 18 17 16 15 15 15 16 17 17 18 18 19 19 20 21 21 21 21 21 21 22 23 24 25 25 26 26 25 24 24
33 33 32 32 32 32 32 32 31 31 30 29 28 28 27 27 28 28 29 29 29 29 29 29 30 30 29 28 27 27 26 25 25 24 23 22 21 20 19 18 17 16 16 15 15 16 17 17 18 18 18 19 20 20 21 21 21 22 22 23 24 24 25 26 25 24 23 22 22
33 33 32 32 32 32 32 32 31 31 30 30 29 28 28 28 28 29 29 29 29 29 30 31 31 31 30 29 28 27 26 26 25 24 23 22 21 20 19 18 17 16 15 15 15 16 17 17 18 18 18 19 19 20 21 21 21 22 22 23 23 24 25 25 24 22 20 20 21
33 33 33 33 33 32 32 32 32 31 31 30 29 29 29 29 29 29 29 30 29 30 30 31 31 31 30 29 28 27 26 26 25 24 23 21 20 19 19 18 17 16 15 15 15 16 17 17 17 18 18 18 19 20 20 20 21 21 22 23 23 24 24 24 21 19 18 19 20
34 34 33 34 33 33 33 33 32 32 31 30 30 30 29 29 29 30 30 30 29 29 30 31 31 31 30 29 28 27 27 26 25 24 23 21 20 19 18 18 17 16 15 15 15 16 17 17 17 17 17 18 19 19 19 20 20 21 22 22 23 24 24 22 19 17 17 18 19
35 35 35 35 34 34 34 34 33 32 32 31 31 31 30 30 30 30 30 29 28 29 30 30 31 30 30 30 29 28 27 26 25 24 22 21 19 18 18 18 17 15 14 15 15 16 16 17 17 17 17 17 18 18 19 19 20 21 22 22 23 24 23 20 17 16 16 17 18
35 36 36 36 35 35 35 35 34 33 33 33 32 32 31 31 30 30 30 28 28 29 30 30 30 31 31 31 30 29 27 26 25 24 22 20 19 18 18 17 17 16 15 14 15 15 16 16 16 16 16 16 17 18 18 19 20 21 21 22 23 23 22 19 16 15 16 17 17
36 37 37 37 36 36 36 35 34 34 34 34 33 32 31 31 30 30 30 29 29 29 30 30 31 31 32 31 30 28 27 26 25 23 22 20 19 18 17 17 17 16 15 14 15 15 16 16 16 16 15 16 16 17 18 19 20 20 21 21 23 23 21 17 14 14 15 16 16
37 38 38 38 37 37 36 36 36 35 35 34 33 32 31 31 31 31 30 30 30 30 30 31 31 32 32 30 29 28 27 25 24 23 22 20 19 17 17 17 17 16 15 15 15 15 16 16 16 15 15 15 16 17 18 19 19 20 21 22 22 22 19 15 13 13 15 15 16
38 38 38 38 37 37 36 36 37 37 36 35 34 33 32 32 31 31 29 29 29 29 30 31 31 31 30 29 28 27 27 25 24 23 21 20 18 17 16 17 17 17 16 15 15 16 16 16 15 15 14 14 15 16 17 18 19 20 21 22 22 20 17 14 13 13 14 15 15
37 37 37 37 37 37 37 37 37 37 36 35 34 33 33 32 31 29 28 28 28 29 29 30 30 30 29 28 27 27 26 25 24 23 21 20 18 17 16 16 17 17 16 16 16 16 16 15 15 14 14 14 15 15 16 17 18 19 20 21 21 18 15 13 13 13 14 14 14
Wind_Direction
227 228 228 228 229 229 229 230 231 232 233 234 234 234 234 235 236 237 238 239 240 241 242 243 243 242 240 237 236 236 238 239 240 242 244 247 251 255 259 263 267 271 274 277 280 283 286 289 291 291 290 288 286 286 286 287 290 294 296 297 297 298 298 297 296 296 297 297 296
226 227 228 228 228 229 229 230 231 232 232 233 234 234 234 235 236 237 238 239 240 241 243 244 243 242 240 239 238 239 240 242 243 245 247 249 252 256 260 264 267 271 274 277 280 283 286 288 290 289 288 286 285 285 285 286 289 292 295 296 297 297 297 295 295 296 297 297 297
226 227 227 227 227 228 228 229 230 231 232 232 233 234 234 235 236 238 239 240 241 242 243 244 243 243 242 242 241 242 244 246 247 249 250 251 254 256 260 264 267 270 273 276 279 282 285 288 289 288 287 286 285 284 285 285 287 290 294 295 296 296 295 293 294 295 296 295 295
226 226 226 226 226 227 228 229 230 231 232 232 233 234 234 235 237 238 240 240 241 241 241 243 243 244 244 245 245 246 248 249 250 252 253 253 255 257 260 263 267 270 272 275 279 282 285 287 287 286 285 284 284 284 284 285 287 289 292 293 294 294 293 292 293 293 293 292 293
225 226 226 227 227 228 229 231 231 232 232 233 233 234 234 235 237 238 239 240 240 240 241 243 245 246 247 248 249 250 250 251 252 253 254 255 256 258 260 263 266 269 272 276 278 281 284 285 285 284 284 283 283 283 284 286 288 290 291 292 292 292 292 292 293 293 293 292 293
225 226 227 227 228 228 230 231 232 233 233 233 233 234 234 235 236 237 238 239 240 241 242 244 246 248 249 250 251 251 251 251 252 253 254 255 257 259 261 263 267 270 273 276 278 281 283 284 284 283 282 282 283 284 285 287 290 291 292 292 291 291 291 292 293 293 294 293 293
226 227 227 227 228 228 229 230 232 233 233 233 233 234 235 235 236 237 239 240 241 242 243 245 246 248 250 251 251 252 252 251 251 251 252 254 256 259 262 264 267 270 273 276 278 280 282 282 282 281 281 282 283 284 286 288 290 292 292 291 291 291 291 292 293 294 294 294 294
227 228 228 228 228 228 229 230 230 231 232 233 233 234 235 236 237 238 240 241 242 243 244 246 247 249 251 251 252 251 251 250 250 250 251 253 256 259 262 265 268 271 273 276 278 280 280 281 280 280 280 281 282 284 286 288 290 291 290 290 290 290 291 292 294 295 295 294 294
226 228 228 228 228 228 228 229 230 231 232 233 234 235 236 237 238 239 240 241 242 243 245 247 249 250 251 251 251 250 249 249 248 249 251 253 257 260 263 266 269 272 274 275 277 279 279 279 278 278 279 280 282 284 286 288 289 289 289 288 289 289 291 292 294 295 295 295 293
225 227 227 227 227 227 228 229 230 231 233 234 235 236 237 237 238 239 240 241 242 244 245 247 249 250 250 250 249 248 247 247 248 250 252 255 258 261 265 267 270 272 274 275 277 278 278 278 278 278 278 279 281 284 285 286 287 287 287 287 288 290 291 293 294 295 295 295 294
225 227 227 227 227 226 226 227 229 231 233 235 236 237 237 237 238 239 240 241 242 244 245 247 248 248 249 248 247 246 246 247 248 251 254 257 259 263 266 268 271 273 274 275 276 277 277 278 278 278 278 279 281 282 284 284 285 286 287 287 289 290 292 293 294 295 295 295 295
225 227 228 228 227 226 225 226 227 229 231 233 235 236 237 237 238 239 240 240 241 243 245 246 247 247 247 247 246 246 246 247 250 252 255 259 261 264 267 269 270 272 273 274 275 276 277 277 278 278 279 279 280 281 282 284 285 286 287 288 289 290 292 293 294 295 295 296 295
225 226 227 227 226 225 224 225 226 228 230 232 234 235 236 237 237 238 239 240 241 243 244 245 246 246 246 246 246 246 247 249 251 254 257 261 263 265 267 268 270 271 272 274 275 276 277 277 278 279 280 280 280 281 282 283 285 286 287 288 290 291 292 293 295 296 296 296 295
224 225 226 226 225 224 223 224 226 228 230 231 233 235 236 237 237 237 238 239 241 243 244 245 245 245 245 246 246 247 248 250 253 256 259 262 264 266 267 268 269 270 272 274 275 276 276 277 277 278 279 281 281 281 281 282 284 286 287 289 291 292 293 294 295 296 296 296 295
223 224 225 225 224 223 223 223 225 227 229 231 233 234 236 236 236 236 237 239 241 243 244 245 245 245 245 246 247 248 250 252 255 257 260 262 264 265 266 268 269 271 273 274 275 276 276 277 277 278 279 280 281 281 282 282 284 286 287 289 291 292 293 294 295 295 296 295 295
221 223 224 224 223 223 222 223 224 226 229 231 232 234 235 236 236 236 237 239 241 242 244 245 245 245 245 246 247 249 251 253 255 257 260 262 263 265 266 268 270 272 274 275 276 276 276 277 277 278 279 280 281 282 283 284 285 287 288 289 290 291 292 293 294 294 295 295 294
220 221 222 222 222 222 222 223 224 226 228 230 232 233 234 235 235 236 237 238 240 242 243 244 245 245 245 246 247 249 251 253 255 257 259 261 263 265 267 269 271 273 275 276 277 277 277 278 278 279 279 280 281 283 284 285 287 288 288 289 289 290 291 292 293 294 295 294 293
219 220 221 221 222 222 223 223 224 226 228 230 231 233 234 235 235 236 236 238 239 241 243 244 244 245 245 246 248 249 251 254 256 258 260 262 264 267 269 270 272 274 275 276 277 278 279 279 279 279 279 280 281 283 285 286 287 288 288 289 289 290 292 293 294 295 295 294 293
218 219 220 220 221 222 223 224 225 226 228 230 232 233 235 235 236 236 237 238 239 241 243 244 245 245 246 247 248 250 252 254 257 259 261 263 266 268 269 271 273 274 276 276 277 278 279 280 280 280 281 281 282 284 285 287 288 288 289 290 291 292 293 295 296 296 296 295 294
218 218 219 220 222 222 223 224 225 226 228 230 231 233 235 236 236 236 237 238 239 241 243 244 245 245 246 247 249 251 252 255 257 260 262 265 266 268 269 271 273 274 275 277 277 278 280 281 282 283 283 284 285 287 287 288 289 290 291 292 293 294 296 297 298 298 298 297 297
218 219 220 221 222 222 223 224 224 226 227 229 231 233 235 236 236 237 237 239 240 242 243 244 245 245 247 248 249 251 254 256 259 261 264 265 266 267 268 270 272 273 275 276 277 278 280 282 284 285 286 287 288 289 289 291 292 293 295 295 296 297 298 299 299 300 300 299 299
218 219 220 221 222 222 223 223 224 224 226 228 231 233 235 236 236 237 238 240 241 242 243 244 245 246 247 249 251 253 256 258 260 262 263 264 264 265 266 268 271 273 274 275 277 279 282 284 285 287 288 289 290 291 292 294 295 296 297 297 298 299 300 301 301 301 301 301 300
219 219 220 220 221 221 221 222 222 223 225 227 230 232 234 235 236 237 238 239 241 242 242 243 245 246 248 250 253 256 258 260 262 262 262 262 262 263 264 267 269 271 273 275 278 281 284 286 288 289 290 292 293 294 295 296 296 296 297 298 299 300 301 302 302 302 301 301 300
218 218 218 219 219 219 219 220 221 222 224 226 229 231 233 234 235 237 238 239 240 241 242 243 245 246 248 251 254 257 259 261 262 261 260 259 259 261 263 265 267 270 272 275 278 283 286 289 290 292 293 295 296 296 296 296 295 295 296 296 297 298 299 300 301 301 300 300 300
217 217 217 217 217 217 218 218 219 221 223 226 228 230 232 233 234 235 237 238 240 241 242 243 245 247 249 251 254 257 259 260 260 260 259 258 258 259 262 264 266 269 271 275 279 284 285 284 285 287 290 291 292 292 292 292 293 293 294 294 294 294 295 296 297 298 299 300 301
216 215 215 215 215 215 215 216 218 221 223 225 227 229 230 232 233 235 237 238 240 241 242 243 245 246 249 251 254 256 258 258 259 258 258 257 258 259 261 263 266 269 272 276 281 284 282 278 278 281 284 286 286 287 288 289 291 291 292 291 291 291 291 293 295 298 301 302 303
214 213 213 214 213 213 214 216 218 220 222 224 226 228 229 230 232 234 237 239 240 241 242 243 244 246 249 251 254 255 256 257 257 256 256 257 258 260 261 263 266 269 273 278 284 284 281 279 280 281 283 285 287 287 288 289 289 290 290 289 289 290 291 294 297 301 303 304 304
212 212 212 212 211 212 213 214 216 218 220 223 225 227 228 230 232 234 237 239 240 241 242 242 244 246 248 250 252 254 256 256 255 255 254 255 257 259 262 264 267 270 275 281 285 283 281 281 283 285 286 287 288 288 288 288 288 288 289 289 291 293 296 298 301 302 303 304 304
211 210 210 209 209 210 211 212 214 217 220 223 225 226 227 229 232 235 237 239 240 240 241 242 243 245 247 249 251 253 255 255 254 253 253 254 256 259 261 264 268 272 277 283 284 283 282 283 285 287 288 288 288 288 287 288 288 288 290 292 294 297 299 300 302 303 303 303 304
210 209 208 207 208 209 210 212 214 217 219 221 223 225 226 229 231 234 237 238 239 240 240 241 243 244 246 248 251 253 254 254 253 252 252 253 256 258 261 265 269 273 278 283 286 285 284 285 287 288 289 289 289 289 289 289 290 290 292 295 297 299 300 301 302 303 303 304 306
208 207 206 206 207 207 209 212 214 216 218 219 221 223 225 228 231 234 236 238 239 240 240 241 243 245 247 249 251 252 253 253 251 250 250 252 255 258 262 266 270 274 279 284 287 287 286 287 288 289 290 291 292 291 291 291 292 294 296 297 299 300 301 302 302 303 304 306 309
206 206 205 205 206 207 209 211 213 215 216 218 220 222 224 227 231 234 236 237 238 239 240 241 242 244 247 248 250 251 252 251 250 249 250 251 255 259 263 267 271 275 280 285 288 287 287 288 289 291 292 293 293 293 293 293 295 297 298 299 299 301 302 303 302 304 306 309 310
205 204 204 204 205 207 209 210 212 214 215 217 219 221 224 227 231 234 235 236 237 237 238 240 241 243 245 247 249 250 251 250 249 249 250 252 255 260 264 268 271 275 281 287 288 287 287 289 290 292 293 294 294 294 294 296 297 298 298 298 299 301 303 303 303 305 308 310 309
204 203 203 204 205 206 208 209 211 212 214 215 218 220 224 226 229 232 234 235 236 237 238 240 242 243 245 247 249 250 251 250 250 249 250 252 255 259 264 268 271 276 283 290 288 287 288 290 291 293 294 295 295 296 297 298 298 298 297 298 300 302 304 304 304 306 309 309 308
202 202 202 203 204 205 206 208 209 210 211 213 216 219 223 226 228 231 233 234 235 236 238 240 242 244 245 247 249 250 250 250 249 249 249 251 255 259 263 267 271 277 285 291 289 288 289 291 292 294 295 296 297 297 298 298 298 298 298 299 301 303 305 304 305 307 309 309 309
202 202 202 202 203 204 205 206 207 208 209 211 215 218 221 225 228 231 233 233 233 235 237 240 241 243 245 246 247 248 248 248 248 249 249 251 254 259 263 268 272 278 286 291 291 289 290 291 293 295 296 297 297 297 297 297 297 298 299 300 302 304 305 304 304 306 309 310 311
204 203 203 203 202 203 203 204 204 205 207 211 214 217 220 223 227 230 231 231 231 233 236 238 240 241 243 244 246 246 247 247 248 248 250 251 254 258 264 269 274 279 286 292 293 291 291 292 294 295 297 297 296 296 296 297 297 298 299 300 303 304 304 303 303 306 310 312 314
205 205 204 203 202 202 202 202 203 204 207 210 214 217 220 223 226 228 229 229 229 231 234 237 238 240 242 244 245 246 247 247 247 248 249 251 253 257 264 270 275 280 287 294 295 292 291 293 294 295 295 294 294 294 295 297 298 299 299 300 302 303 303 301 302 306 310 314 317
207 206 206 204 203 202 201 201 202 204 207 210 213 216 219 222 225 227 228 229 230 231 234 236 238 240 243 244 245 246 247 247 247 247 249 250 253 257 263 271 276 282 288 295 296 294 292 293 294 294 293 292 292 293 294 296 297 298 298 300 301 301 300 299 302 307 312 315 320
207 207 206 205 204 202 201 202 203 206 208 210 212 215 218 221 224 227 228 229 230 232 234 236 239 241 242 243 244 246 247 247 246 246 247 250 253 257 263 270 276 283 289 294 296 295 293 292 292 292 291 290 290 291 293 294 296 297 298 299 300 298 296 298 304 310 314 317 321
207 207 206 205 205 203 202 203 204 206 208 210 212 215 218 221 223 225 225 227 229 231 234 236 239 241 242 242 243 245 246 247 246 246 247 249 252 256 261 268 275 281 287 290 292 293 293 291 291 290 289 288 289 289 291 293 294 296 298 299 298 295 293 298 308 314 316 318 322
Height
809 810 811 812 812 813 814 814 815 816 817 817 818 819 820 820 821 821 822 823 823 823 824 824 825 825 826 826 826 826 826 827 827 827 827 827 827 827 827 827 827 827 827 826 826 826 825 825 824 824 823 822 822 822 821 821 821 820 820 819 818 818 817 816 815 814 813 812 811
806 807 809 810 811 811 812 813 813 814 815 815 816 817 818 819 819 819 820 821 821 822 822 823 823 824 824 824 824 824 824 825 825 825 825 825 825 825 825 825 825 825 825 825 824 824 824 823 822 822 821 821 820 820 819 819 819 819 818 817 817 816 815 814 813 812 811 810 809
804 805 807 807 808 809 810 810 811 812 812 813 814 815 816 817 817 817 818 819 819 820 821 821 821 822 822 822 822 822 823 823 823 823 823 823 823 824 824 824 824 824 823 823 823 822 822 822 821 820 819 819 818 818 818 817 817 817 816 815 815 814 813 812 811 810 809 808 807
802 803 804 805 805 806 807 807 808 809 810 812 813 814 814 815 815 816 816 817 818 818 818 819 819 820 820 821 821 821 821 821 821 821 821 821 822 822 822 822 822 822 822 822 821 821 820 820 819 818 818 817 817 816 816 816 816 815 814 814 813 812 811 810 809 808 807 806 805
799 800 801 802 803 804 805 806 807 808 809 810 811 812 812 813 813 814 815 815 815 816 817 817 818 818 819 819 819 819 819 819 819 819 819 820 820 820 820 820 820 820 820 820 820 819 819 818 817 817 816 815 815 814 814 814 814 813 812 812 811 810 809 808 807 806 805 804 803
796 797 799 800 801 802 803 804 805 806 807 808 809 810 810 811 811 812 812 813 813 814 815 816 816 817 817 817 817 817 817 817 818 818 818 818 818 818 818 818 818 818 818 818 818 817 817 817 816 815 814 814 813 813 812 812 812 811 810 810 809 808 807 806 805 804 803 802 801
793 795 796 798 799 800 801 802 803 805 806 806 807 807 808 808 809 810 810 811 812 813 814 814 814 815 815 815 815 815 815 815 816 816 816 816 816 816 816 816 817 817 816 816 816 816 815 815 814 813 812 812 811 811 811 811 810 810 809 808 807 806 806 805 803 803 802 800 799
791 793 794 795 797 798 799 800 802 803 803 804 804 805 805 807 807 808 809 810 811 811 812 812 812 813 813 813 813 813 814 814 814 814 814 814 814 814 814 814 815 815 815 814 814 814 813 813 812 811 811 810 810 809 809 809 809 808 807 806 805 804 803 802 802 801 800 798 797
789 790 792 793 795 796 797 798 800 800 801 801 802 803 804 805 806 807 807 808 809 810 810 811 811 811 812 812 812 812 812 812 812 812 813 813 813 813 813 813 813 813 813 813 813 812 812 811 810 810 809 809 808 807 807 807 807 806 805 804 803 802 801 801 800 799 798 797 795
786 788 790 791 792 794 795 797 797 798 799 799 800 801 802 803 804 805 805 806 807 808 808 809 809 810 810 810 810 810 810 810 811 811 811 811 811 811 811 811 811 811 811 811 811 810 810 809 808 807 807 807 806 806 805 805 805 804 803 802 801 800 799 798 798 797 796 795 793
783 785 787 788 790 792 793 794 795 796 797 797 798 799 800 801 802 803 804 805 806 806 806 807 808 808 808 808 808 809 809 809 809 809 809 809 809 809 809 809 809 809 809 809 809 809 808 807 806 806 805 805 805 804 804 803 803 802 801 800 799 798 797 796 796 795 794 793 791
781 783 785 786 788 790 791 792 793 794 795 795 796 797 798 799 800 801 802 803 804 804 804 805 806 806 807 807 807 807 807 807 808 808 808 808 808 807 807 807 807 807 807 807 807 807 806 805 805 804 803 803 803 802 802 801 801 800 799 798 797 797 795 794 793 793 792 791 790
779 781 782 784 786 787 788 790 790 791 792 793 794 795 796 797 798 800 800 801 801 802 803 804 804 805 805 805 805 806 806 806 806 806 806 806 806 806 806 805 805 805 805 805 805 805 804 803 803 802 801 801 801 800 800 800 799 798 797 796 795 794 793 792 791 790 790 789 787
777 778 780 781 783 784 786 787 788 789 790 791 792 793 794 795 797 798 799 799 800 800 801 802 802 803 803 803 804 804 804 804 805 805 804 804 804 804 804 803 803 803 803 803 803 803 802 801 801 800 800 799 798 798 798 798 797 796 795 794 793 792 791 790 789 788 787 786 785
775 776 777 779 780 782 783 784 785 786 787 788 790 791 792 794 795 796 797 797 798 799 800 800 801 801 801 802 802 803 803 803 803 803 803 802 802 802 802 802 802 802 802 801 801 801 800 800 799 798 798 797 797 796 796 796 795 795 794 793 791 790 789 788 787 786 785 784 783
772 773 775 776 777 779 780 782 783 784 785 786 787 789 790 791 793 794 795 796 796 797 798 798 799 799 800 800 801 801 801 801 801 801 801 801 800 800 800 800 800 800 800 800 799 799 798 798 797 797 796 795 795 794 794 794 793 792 792 791 790 788 787 786 785 784 783 782 781
769 770 772 773 775 776 777 779 780 781 782 783 785 787 788 789 791 792 793 794 795 796 796 797 797 798 799 799 799 799 800 799 799 799 799 799 799 799 799 798 798 798 798 798 797 797 796 796 795 795 794 794 793 792 792 792 791 790 789 788 787 786 785 784 783 782 781 780 779
766 768 769 770 772 773 775 776 777 779 780 781 783 785 786 787 789 790 791 792 793 794 794 795 796 797 797 797 798 798 798 798 797 797 797 797 797 797 797 797 797 796 796 796 795 795 794 794 793 793 792 792 791 791 790 790 789 788 787 786 785 784 783 782 781 780 779 777 776
763 765 766 767 769 770 772 774 775 777 778 779 781 783 784 786 787 788 790 790 791 792 793 794 794 795 795 796 796 796 796 796 796 796 796 796 796 796 795 795 795 795 795 794 794 793 792 792 791 791 791 790 790 789 788 788 787 786 785 784 783 782 780 780 779 778 777 775 774
760 762 763 764 766 768 770 771 773 775 776 778 779 781 782 784 785 787 788 789 790 791 792 792 793 793 794 794 795 795 795 795 795 794 794 794 794 794 794 793 793 793 793 792 792 791 791 790 790 789 789 788 787 787 786 786 785 784 783 782 780 779 778 777 776 775 774 772 771
757 758 760 762 763 765 767 769 771 773 774 776 778 779 781 782 784 785 786 787 789 790 790 791 791 792 792 792 793 793 793 793 793 793 793 793 792 792 792 792 792 791 791 791 790 789 789 788 788 787 787 786 786 785 784 784 783 782 781 779 778 777 776 775 773 772 771 770 768
754 755 757 759 761 763 765 767 769 771 773 774 776 777 779 780 782 783 785 787 788 788 789 789 790 790 790 791 791 791 791 792 792 791 791 791 791 791 791 790 790 790 789 789 788 788 787 787 786 785 785 784 784 783 783 782 781 780 778 777 776 774 773 772 771 770 768 767 766
751 753 755 757 759 761 763 765 767 769 771 772 774 776 777 779 780 782 784 785 786 787 787 787 788 788 789 789 790 790 790 790 790 790 790 790 789 789 789 789 789 788 787 787 787 786 785 785 784 783 783 782 782 781 780 780 779 778 776 775 773 772 771 770 769 767 766 765 763
749 751 753 755 757 759 761 763 765 767 769 770 772 774 775 777 779 781 782 783 784 785 785 786 786 787 787 788 788 788 788 788 788 788 788 788 788 788 787 787 787 786 786 785 785 785 784 783 782 781 781 780 780 779 778 777 777 776 774 773 771 770 769 767 766 765 764 762 761
747 749 751 753 755 757 759 761 763 765 767 768 770 772 774 776 777 779 780 781 782 782 783 784 785 785 786 786 786 786 786 786 786 786 786 786 786 786 786 786 785 785 784 784 784 783 783 782 781 780 780 779 778 777 776 775 775 774 773 771 770 768 767 765 764 763 762 761 760
746 747 749 751 752 755 757 759 761 763 765 767 769 770 772 774 776 777 778 779 780 780 781 782 783 784 784 784 784 784 784 784 784 784 784 784 784 784 784 784 783 783 783 782 782 782 781 781 781 780 779 778 777 776 775 774 773 772 771 770 769 767 765 764 762 761 760 759 758
744 745 747 749 751 753 755 757 759 761 763 765 767 769 770 772 774 775 776 777 777 778 780 780 781 782 782 782 782 782 782 782 782 783 783 783 783 783 782 782 782 781 781 781 780 780 780 780 779 779 778 777 776 775 774 773 772 771 770 769 767 766 765 763 762 760 759 758 757
742 743 745 747 749 751 753 755 758 760 762 763 765 767 769 770 772 773 774 774 775 776 777 778 779 780 780 780 780 780 780 780 781 781 781 781 781 781 781 780 780 780 780 779 779 778 778 778 777 777 776 776 775 774 773 771 770 769 768 767 766 765 763 762 761 759 758 756 755
740 742 744 746 748 750 752 754 756 758 760 762 763 765 767 768 769 770 771 772 773 774 775 776 777 777 778 778 778 778 778 779 779 779 780 779 779 779 779 779 778 778 778 778 777 777 777 776 776 775 775 774 773 772 771 770 768 767 766 765 764 763 762 761 760 758 757 755 753
738 740 743 745 746 748 750 752 754 756 758 760 762 763 765 766 767 768 769 770 770 771 772 774 775 775 775 775 776 776 777 777 777 778 778 777 777 777 777 777 777 776 776 776 776 775 775 774 774 773 773 772 771 770 769 768 767 766 765 764 763 762 761 759 758 757 755 754 752
737 739 741 743 745 747 749 750 752 755 756 758 760 761 762 763 764 765 766 767 768 769 771 772 772 773 773 773 774 774 775 775 775 776 776 776 775 775 775 775 775 775 775 774 774 773 773 772 772 771 771 770 770 769 767 767 765 765 763 762 761 760 759 758 756 755 754 753 751
736 738 740 742 744 745 747 749 751 752 754 756 757 758 760 761 761 762 763 764 766 767 769 770 770 770 771 771 772 772 772 773 773 774 774 774 774 774 774 774 773 773 773 772 772 772 771 771 770 770 769 768 768 767 766 765 764 763 762 761 760 759 757 756 755 754 753 752 750
734 736 738 740 741 743 745 747 749 750 752 753 754 756 757 758 759 760 761 762 764 765 766 767 767 768 768 769 770 770 770 771 771 772 772 772 772 772 772 772 771 771 771 771 770 770 770 769 768 768 767 767 766 765 764 763 762 761 760 759 758 757 756 755 754 752 752 751 750
732 734 736 737 739 741 743 744 746 747 749 750 752 753 754 755 756 757 758 760 761 762 763 764 765 765 766 767 768 768 768 769 769 770 770 770 771 770 770 770 769 770 770 769 769 768 768 767 767 766 765 765 764 763 762 761 760 760 759 757 756 755 754 753 752 751 751 750 748
729 731 733 735 736 738 740 741 743 744 746 747 749 750 751 752 754 755 756 757 759 760 761 762 763 763 764 765 765 766 767 767 767 768 768 769 769 769 768 768 768 768 768 767 767 767 766 765 765 764 764 763 762 761 761 760 759 758 757 756 755 754 753 752 751 750 749 748 747
727 728 730 732 733 735 736 738 740 741 743 744 746 747 748 750 751 752 753 755 757 758 759 759 760 761 762 762 763 764 764 765 765 766 767 767 767 767 766 766 766 766 766 766 765 765 764 764 763 763 762 761 760 760 759 758 757 756 755 754 753 752 751 750 750 749 748 747 746
725 726 727 729 730 732 733 735 736 738 740 741 743 744 746 747 748 750 751 753 755 755 756 757 758 759 759 760 761 761 762 763 764 764 765 765 765 765 764 764 764 764 764 764 764 763 763 762 762 761 760 760 759 758 757 757 756 755 754 753 751 750 750 749 748 748 747 746 745
722 723 725 726 727 728 730 732 733 735 736 738 740 742 743 745 746 747 749 750 752 752 753 754 755 756 756 757 759 760 760 761 762 762 763 763 763 763 763 762 762 762 762 762 762 761 761 760 760 759 759 758 757 757 756 755 754 753 752 751 750 749 748 747 747 746 745 744 743
720 721 722 723 724 726 727 729 730 731 733 735 737 739 741 742 744 745 746 748 749 750 751 752 752 753 754 756 757 758 758 759 760 760 761 761 761 761 761 761 760 760 760 760 760 760 759 759 758 758 757 757 756 755 755 754 753 752 751 750 748 747 747 746 746 745 744 743 742
717 718 720 721 722 723 725 726 727 729 731 733 735 737 738 740 741 743 744 746 747 748 749 750 750 751 753 755 755 756 757 757 758 759 759 759 759 760 760 759 759 758 759 759 759 758 757 757 756 756 756 755 755 754 753 753 752 751 749 748 747 746 745 745 744 744 743 742 741
715 717 718 719 721 722 723 724 725 727 728 730 732 734 736 737 739 741 742 744 745 746 747 748 749 750 751 753 754 754 755 755 756 757 757 757 758 758 758 757 757 757 757 757 757 756 756 755 755 754 754 754 753 752 752 751 750 749 748 747 745 745 744 743 743 742 742 741 740